Location: Palmerston North
(40.3500°S, 175.6170°E)
Time: 12:50:44
(UTC+13:00)

ISS - Visible Passes

Search period start: 24 January 2019 00:00
Search period end: 03 February 2019 00:00
Orbit: 404 x 410 km, 51.6° (Epoch: 24 January)

Date Brightness Start Highest point End Pass type
(mag) Time Alt. Az. Time Alt. Az. Time Alt. Az.
26 Jan -1.1 05:41:23 10° NNE 05:43:07 14° NE 05:44:51 10° E visible
28 Jan -2.5 05:33:33 10° NNW 05:36:35 33° NE 05:39:39 10° ESE visible
29 Jan -1.6 04:44:01 15° NNE 04:45:21 18° NE 04:47:43 10° E visible
30 Jan -3.8 05:27:29 15° NW 05:30:11 89° NE 05:33:34 10° SE visible
31 Jan -3.2 04:38:10 39° N 04:38:48 45° NE 04:42:02 10° ESE visible
01 Feb -1.5 03:48:47 19° E 03:48:47 19° E 03:50:15 10° ESE visible
01 Feb -2.8 05:21:29 15° W 05:23:54 39° SSW 05:27:06 10° SE visible
02 Feb -3.8 04:32:02 62° W 04:32:23 70° SW 04:35:44 10° SE visible
